Location: Newark
(54.5481°N, 3.5856°W)
Time: 22:55:07
(UTC+00:00)

ISS - Visible Passes

Search period start: 21 October 2019 00:00
Search period end: 31 October 2019 00:00
Orbit: 411 x 421 km, 51.6° (Epoch: 21 October)

Date Brightness Start Highest point End Pass type
(mag) Time Alt. Az. Time Alt. Az. Time Alt. Az.
26 Oct -1.5 06:23:18 10° SSW 06:26:03 23° SSE 06:28:48 10° E visible
27 Oct -1.2 05:35:17 10° SSW 05:37:37 18° SSE 05:39:57 10° ESE visible
28 Oct -0.9 04:47:36 10° S 04:49:13 13° SE 04:50:49 10° ESE visible
28 Oct -2.3 06:22:09 10° SW 06:25:16 36° SSE 06:28:24 10° E visible
29 Oct -2.1 05:34:09 12° SW 05:36:45 29° SSE 05:39:43 10° E visible
30 Oct -1.8 04:47:44 21° SSE 04:48:15 22° SSE 04:50:56 10° E visible
30 Oct -2.9 06:21:17 10° WSW 06:24:32 47° S 06:27:47 10° E visible
